Regional Weather Roundup
Issued by NWS Grand Forks, ND

Home | Current Version | Previous Version | Text Only | Print | Product List | Glossary On
Versions: 1 2 3 4 5 6 7 8 9 10 11 12 13 14 15 16 17 18 19 20 21 22 23 24 25 26 27 28 29 30 31 32 33 34 35 36 37 38 39 40 41 42 43 44 45 46 47 48 49 50
000
ASUS43 KFGF 271210
RWRFGF
PRAIRIE TO PINES  WEATHER ROUNDUP
NATIONAL WEATHER SERVICE EASTERN NORTH DAKOTA/GRAND FORKS ND
600 AM CST THU NOV 27 2014

 **SATELLITE DATA USED TO AUGMENT SKY COVER AT AUTOMATED STATIONS**
 *****  WEATHER ACROSS EASTERN NORTH DAKOTA  *****

CITY           SKY/WX    TMP DP  RH WIND       PRES   REMARKS
GRAND FORKS    MOCLDY   -15 -20  78 S5        30.51F WCI -27
6HR MIN TEMP: -17; 6HR MAX TEMP: -11;

GRAND FRKS AFB PTCLDY   -15 -21  75 SW6       30.50F WCI -30
GRAND FRKS NWS   N/A    -13 N/A N/A MISG        N/A
DEVILS LAKE    PTCLDY    -4 -15  59 SW7       30.39S WCI -18
6HR MIN TEMP: -11; 6HR MAX TEMP:  -2;

FARGO          PTCLDY   -12 -17  78 SW3       30.54F
WAHPETON ARPT  MOSUNNY  -13 -18  77 W6        30.55F WCI -27
$$

 ***** WEATHER ACROSS CENTRAL AND WESTERN NORTH DAKOTA  *****

CITY           SKY/WX    TMP DP  RH WIND       PRES   REMARKS
BISMARCK       MOCLDY    -8 -12  83 E7        30.38F WCI -23
6HR MIN TEMP: -12; 6HR MAX TEMP:  -7;

MINOT          CLOUDY    -9 -15  75 E3        30.31F
6HR MIN TEMP: -18; 6HR MAX TEMP:  -9;

JAMESTOWN      MOCLDY   -23 -29  73 S3        30.43F
6HR MIN TEMP: -28; 6HR MAX TEMP: -19;

MINOT AFB      FLURRIES -11 -16  80 SE6       30.31F WCI -25
GARRISON         N/A      9   6  88 S8        30.30F WCI  -3
WILLISTON      MOCLDY    10   6  84 CALM      30.22F
6HR MIN TEMP:   2; 6HR MAX TEMP:  10;

DICKINSON      CLOUDY    13   9  84 S15       30.17F WCI  -3
6HR MIN TEMP:  11; 6HR MAX TEMP:  14;

HETTINGER      CLOUDY    12   9  87 SE10      30.20F WCI  -1
6HR MIN TEMP:   9; 6HR MAX TEMP:  12;

$$

 *****  OTHER AIRPORT OBSERVATIONS IN OUR AREA  *****

CITY           SKY/WX    TMP DP  RH WIND       PRES   REMARKS
WALHALLA         N/A    -11 -17  77 SW6       30.47F WCI -25
GRAFTON AIRPOR FAIR     -13 -18  77 S5        30.51F WCI -25
VALLEY CITY AR   N/A    -20 -24  83 S5        30.46F WCI -33
CANDO          FAIR     -17 -20  83 S6        30.41F WCI -31
CAVALIER APRT  FAIR     -17 -20  83 SW3       30.48F
GWINNER        SUNNY    -15 -22  70 SW6       30.51F WCI -29
SHEYENNE NWR     N/A    -20 -28  66 CALM      29.95S
ROLLA          FAIR     -11 -17  77 S6        30.34F WCI -25
 ***** THE ABOVE OBSERVATIONS ARE NON NWS ARE NOT QUALITY
       CONTROLLED AND MAY MIS-REPORT RAIN FOR SNOW...
$$

  *****  WEATHER ACROSS NORTHERN MINNESOTA  *****

CITY           SKY/WX    TMP DP  RH WIND       PRES   REMARKS
FLAG ISLAND    PTCLDY   -17 -20  83 CALM      30.46F
WARROAD        PTCLDY   -17 -22  76 CALM      30.46F
ROSEAU         PTCLDY   -15 -20  76 CALM      30.48F
HALLOCK        PTCLDY   -17 -22  76 S6        30.49F WCI -31
THF RVR FALLS  PTCLDY   -17 -20  83 S5        30.47F WCI -29
6HR MIN TEMP: -17; 6HR MAX TEMP:  -9;

BAUDETTE       PTCLDY   -16 -21  78 CALM      30.45F
6HR MIN TEMP: -16; 6HR MAX TEMP:  -9;

WASKISH        PTCLDY   -11 -17  77 CALM      30.45F
CROOKSTON      PTCLDY   -15 -18  84 S3        30.53F
STEPHEN NDAWN    N/A    -15 -18  84 S3          N/A
GREENBUSH NDAW   N/A    -15 -20  76 SE3         N/A
$$
  *****  WEATHER ACROSS CENTRAL AND WEST MINNESOTA  *****

CITY           SKY/WX    TMP DP  RH WIND       PRES   REMARKS
FOSSTON        PTCLDY   -20 -27  69 CALM      30.48S
BEMIDJI        NOT AVBL
PARK RAPIDS    PTCLDY   -16 -21  78 W3        30.43F
6HR MIN TEMP: -16; 6HR MAX TEMP:  -8;

ELBOW LAKE     NOT AVBL
WADENA         PTCLDY    -9 -15  77 CALM      30.46S
DETROIT LAKES  MOCLDY   -11 -15  84 CALM      30.47S
MOORHEAD       PTCLDY   -11 -15  84 CALM      30.53F
FERGUS FALLS   PTCLDY   -13 -18  77 CALM      30.56S
MORRIS MN      MOCLDY   -11 -17  77 W6        30.51S WCI -25
STAPLES        PTCLDY   -11 -15  84 NW3       30.46S
$$
  *****  WEATHER ELSEWHERE ACROSS MINNESOTA  *****

CITY           SKY/WX    TMP DP  RH WIND       PRES   REMARKS
DULUTH         PTCLDY    -7 -14  71 NW8       30.38F WCI -23
6HR MIN TEMP:  -8; 6HR MAX TEMP:  -2;

INTRNTL FALLS  PTCLDY   -18 -23  77 CALM      30.45S
6HR MIN TEMP: -18; 6HR MAX TEMP: -10;

ELY            PTCLDY   -17 -22  76 CALM      30.40S
CLOQUET        PTCLDY    -8 -13  77 NW8       30.42R WCI -23
WHEATON        PTCLDY    -9 -15  77 W3        30.56F
BRAINERD       PTCLDY    -8 -11  86 N5        30.46F WCI -19
6HR MIN TEMP:  -8; 6HR MAX TEMP:  -1;

HIBBING        PTCLDY   -11 -17  75 N7        30.42S WCI -26
6HR MIN TEMP: -11; 6HR MAX TEMP:  -5;

ALEXANDRIA     PTCLDY    -9 -13  83 W5        30.47R WCI -20
6HR MIN TEMP:  -9; 6HR MAX TEMP:  -3;

SAINT CLOUD    FAIR      -4 -10  75 NW8       30.49R WCI -19
6HR MIN TEMP:  -4; 6HR MAX TEMP:   4;

MINNEAPOLIS    PTCLDY     0  -7  72 NW8       30.49R WCI -14
6HR MIN TEMP:   0; 6HR MAX TEMP:  11;

$$

  *****  WEATHER ACROSS SOUTH DAKOTA  *****

CITY           SKY/WX    TMP DP  RH WIND       PRES   REMARKS
SIOUX FALLS    PTCLDY    -4  -9  79 N3        30.48F
6HR MIN TEMP:  -6; 6HR MAX TEMP:   3;

BROOKINGS      NOT AVBL
WATERTOWN      MOCLDY   -12 -17  78 CALM      30.43F
6HR MIN TEMP: -14; 6HR MAX TEMP:  -5;

HURON          PTCLDY    -6 -10  83 E3        30.50F
6HR MIN TEMP:  -6; 6HR MAX TEMP:   0;

SISSETON         N/A    -14 -19  79 SW3       30.52F
ABERDEEN       PTCLDY   -13 -18  78 CALM      30.50F
6HR MIN TEMP: -15; 6HR MAX TEMP:  -7;

MITCHELL       PTCLDY     1  -5  75 NE5       30.51F WCI  -9
PIERRE         CLOUDY    12   8  84 E13       30.36F WCI  -3
6HR MIN TEMP:   8; 6HR MAX TEMP:  13;

MOBRIDGE       PTCLDY     0  -6  76 E10       30.35F WCI -16
RAPID CITY     CLOUDY    20  18  92 SE8       30.16F WCI  10
6HR MIN TEMP:  20; 6HR MAX TEMP:  24;

$$

  *****  SOME WEATHER IN NEARBY STATES *****

CITY           SKY/WX    TMP DP  RH WIND       PRES   REMARKS
GLASGOW MT     LGT SNOW  20  16  84 E16       30.05F FOG     WCI   6
6HR MIN TEMP:  16; 6HR MAX TEMP:  20; 6HR PCP:  0.01;

GREAT FALLS MT MOCLDY    40  31  70 S10       29.84F
6HR MIN TEMP:  25; 6HR MAX TEMP:  41;

CHEYENNE WY    PTCLDY    43  20  39 W21       30.17F
6HR MIN TEMP:  25; 6HR MAX TEMP:  44;

SCOTTSBLUFF NE MOCLDY    16  14  92 CALM      30.17F
6HR MIN TEMP:  11; 6HR MAX TEMP:  22;

OMAHA NE       CLOUDY    17  11  77 N13       30.51F WCI   4
6HR MIN TEMP:  15; 6HR MAX TEMP:  21;

DES MOINES IA  PTCLDY     8   0  69 NW13      30.50R WCI  -8
6HR MIN TEMP:   8; 6HR MAX TEMP:  22; 6HR PCP: TRACE;

DAVENPORT IA   LGT SNOW  25  19  78 W15       30.36R WCI  13
6HR MIN TEMP:  18; 6HR MAX TEMP:  25; 6HR PCP: TRACE;

CHICAGO IL     CLOUDY    24  19  81 NW9       30.26R WCI  14
6HR MIN TEMP:  23; 6HR MAX TEMP:  26; 6HR PCP: TRACE;

EAU CLAIRE WI  CLEAR      1  -5  75 NW8       30.42R WCI -13
6HR MIN TEMP:   1; 6HR MAX TEMP:  17; 6HR PCP: TRACE;

LA CROSSE WI   PTCLDY    14   6  70 NW17      30.39R WCI  -3
6HR MIN TEMP:  14; 6HR MAX TEMP:  25;

$$

  *****  SOME NATIONAL WEATHER *****

CITY           SKY/WX    TMP DP  RH WIND       PRES   REMARKS
LA GUARDIA NY  CLOUDY    36  30  79 NW7       29.96R
6HR MIN TEMP:  36; 6HR MAX TEMP:  37;

RALEIGH NC     CLOUDY    41  38  89 E5        30.00S
6HR MIN TEMP:  39; 6HR MAX TEMP:  41; 6HR PCP:  0.01;

ATLANTA GA     PTCLDY    40  29  64 W12       30.18R
6HR MIN TEMP:  40; 6HR MAX TEMP:  49;

NEW ORLEANS LA CLEAR     51  41  68 N8        30.37R
6HR MIN TEMP:  48; 6HR MAX TEMP:  57;

OKLAHOMA CITY  CLEAR     32  22  66 NE3       30.48R
6HR MIN TEMP:  30; 6HR MAX TEMP:  36;

ALBUQUERQUE NM PTCLDY    39  22  50 N7        30.43F
6HR MIN TEMP:  36; 6HR MAX TEMP:  46;

SALT LAKE CITY MOCLDY    45  26  47 SE15      30.29F
6HR MIN TEMP:  43; 6HR MAX TEMP:  46;

LOS ANGELES CA CLEAR     62  24  23 NE5       30.09S


USA.gov is the U.S. government's official web portal to all federal, state and local government web resources and services.